IRA242 OIIE-UTAA

Flight info

Callsign IRA242
Flight time N/A
Altitude 37000
Route DHN B451 BRD L720 RIKOP RIK29A
Aircraft A320/M-SDE3FGHIRWY/LB1

Departure

Time 2026-04-30 00:24
Airport Imam Khomeini International Airport (OIIE)

Arrival

Time N/A
Airport Ashgabat International Airport (UTAA)
Time Latitude Longitude Altitude Speed Heading
2026-04-29 23:58 35.41267 51.15290 3267 ft 0 kts 19°
2026-04-30 00:17 35.41266 51.15289 3272 ft 2 kts 19°
2026-04-30 00:18 35.41242 51.15278 3273 ft 4 kts 26°
2026-04-30 00:18 35.41219 51.15261 3273 ft 4 kts 40°
2026-04-30 00:18 35.41202 51.15238 3271 ft 4 kts 79°
2026-04-30 00:18 35.41202 51.15224 3274 ft 0 kts 109°
2026-04-30 00:20 35.41197 51.15240 3271 ft 9 kts 109°
2026-04-30 00:20 35.41180 51.15335 3270 ft 11 kts 72°
2026-04-30 00:21 35.41255 51.15380 3271 ft 15 kts 19°
2026-04-30 00:21 35.41330 51.15462 3272 ft 17 kts 91°
2026-04-30 00:21 35.41293 51.15602 3269 ft 18 kts 109°
2026-04-30 00:21 35.41251 51.15750 3269 ft 18 kts 109°
2026-04-30 00:22 35.41210 51.15899 3270 ft 18 kts 109°
2026-04-30 00:22 35.41165 51.16056 3268 ft 21 kts 109°
2026-04-30 00:22 35.41115 51.16236 3266 ft 20 kts 108°
2026-04-30 00:22 35.41067 51.16412 3260 ft 21 kts 108°
2026-04-30 00:23 35.41123 51.16498 3258 ft 15 kts 21°
2026-04-30 00:23 35.41230 51.16543 3259 ft 16 kts 19°
2026-04-30 00:23 35.41323 51.16568 3263 ft 9 kts 322°
2026-04-30 00:23 35.41345 51.16484 3264 ft 19 kts 287°
2026-04-30 00:24 35.41473 51.16027 3272 ft 91 kts 289°
2026-04-30 00:24 35.41746 51.15045 3288 ft 148 kts 289°
2026-04-30 00:24 35.42106 51.13731 3674 ft 163 kts 289°
2026-04-30 00:24 35.42373 51.12375 4375 ft 165 kts 277°
2026-04-30 00:25 35.42371 51.10893 4780 ft 186 kts 263°
2026-04-30 00:25 35.41985 51.09276 5046 ft 212 kts 246°
2026-04-30 00:25 35.41095 51.07699 5402 ft 239 kts 226°
2026-04-30 00:25 35.39665 51.06468 5851 ft 266 kts 204°
2026-04-30 00:26 35.37828 51.05982 6540 ft 281 kts 180°
2026-04-30 00:26 35.35884 51.06444 7410 ft 289 kts 156°
2026-04-30 00:26 35.34236 51.07865 8309 ft 294 kts 131°
2026-04-30 00:26 35.33225 51.10044 9198 ft 297 kts 105°
2026-04-30 00:27 35.33068 51.12529 10036 ft 300 kts 80°
2026-04-30 00:27 35.33703 51.15010 10618 ft 315 kts 69°
2026-04-30 00:27 35.34188 51.17708 10985 ft 337 kts 88°
2026-04-30 00:27 35.34100 51.20665 11387 ft 355 kts 94°
2026-04-30 00:28 35.33946 51.23715 12088 ft 362 kts 95°
2026-04-30 00:28 35.33781 51.26776 12829 ft 367 kts 95°
2026-04-30 00:28 35.33609 51.29913 13585 ft 371 kts 95°
2026-04-30 00:28 35.33437 51.33082 14287 ft 376 kts 96°
2026-04-30 00:29 35.33265 51.36299 14983 ft 381 kts 96°
2026-04-30 00:29 35.33093 51.39558 15687 ft 385 kts 96°
2026-04-30 00:29 35.32921 51.42847 16352 ft 389 kts 96°
2026-04-30 00:29 35.32748 51.46172 17001 ft 393 kts 96°
2026-04-30 00:30 35.32573 51.49492 17634 ft 397 kts 96°
2026-04-30 00:30 35.32391 51.52888 18256 ft 401 kts 96°
2026-04-30 00:30 35.32209 51.56317 18881 ft 405 kts 96°
2026-04-30 00:30 35.32024 51.59774 19516 ft 408 kts 96°
2026-04-30 00:31 35.31837 51.63267 20115 ft 412 kts 96°
2026-04-30 00:31 35.31649 51.66742 20728 ft 415 kts 97°